Location: Ferris
(32.5340°N, 96.6656°W)
Time: 23:40:22
(UTC+00:00)

Cosmos 1354 Rocket - Pass Details

Date: 20 May 2026
Orbit: 761 x 778 km, 74.0° (Epoch: 7 June)

Event Time Altitude Azimuth Distance (km) Brightness Sun altitude
Rises 03:58:48 0° 346° (NNW) 3,230 8.2 -27.2°
Reaches altitude 10° 04:01:12 10° 348° (NNW) 2,299 7.3 -27.5°
Enters shadow 04:05:44 62° 25° (NNE) 853 4.2 -28.1°
